Home > Time Zones > World Clock > Weather > U.S.A. > Nome > Past weeks

Flag for U.S.A. Weather past 2 weeks in Nome, Alaska, U.S.A.

Now
14 °F

Mostly cloudy.


Feels Like: 14 °F
Forecast: 7 / 13 °F
Wind: No wind

Location: Nome Airport

Current Time: Jan 31, 2015 at 8:14:48 AM

Latest Report: Jan 31, 2015 at 7:53 AM


Visibility: 10 mi

Pressure: 30.66 "Hg

Humidity: 95%

Dew point: 13 °F

Location of NomeLocation

Historic Weather in Nome — Graph

°F

Nome temperature yesterday

Maximum temperature yesterday: 14 °F (at 10:53 PM)
Minimum temperature yesterday: 0 °F (at 12:53 AM)
Average temperature yesterday: 8 °F

Past Weeks' High & Low Weather Summary

 TemperatureHumidityPressure
High27 °F (Jan 17, 8:53 AM)100% (Jan 17, 11:53 AM)30.70 "Hg (Jan 17, 11:53 AM)
Low-27 °F (Jan 26, 12:53 AM)41% (Jan 27, 3:53 PM)28.84 "Hg (Jan 17, 5:53 AM)
Average-4 °F81%29.96 "Hg
* Reported Jan 16 6:53 AM — Jan 31 6:53 AM, Nome, Weather by CustomWeather, © 2014

Note: Actual official high and low records may vary slightly from our data, if they occured in-between our weather recording intervals... More about our weather records

Advertising

Nome weather history for previous 24 hours

 ConditionsComfort  
Time TempWeatherWind HumidityBarometerVisibility
6:53 AM
Jan 31
16 °FMostly cloudy.No wind92%30.68 "Hg10 mi
5:53 AM15 °FOvercast.8 mph87%30.69 "Hg10 mi
4:53 AM15 °FLow clouds.9 mph87%30.69 "Hg10 mi
3:53 AM15 °FMostly cloudy.9 mph87%30.70 "Hg10 mi
2:53 AM15 °FLow clouds.10 mph83%30.68 "Hg10 mi
1:53 AM15 °FLow clouds.8 mph87%30.68 "Hg10 mi
12:53 AM14 °FLow clouds.10 mph87%30.69 "Hg10 mi
11:53 PM
Jan 30
14 °FLow clouds.9 mph84%30.69 "Hg10 mi
10:53 PM14 °FLow clouds.9 mph84%30.70 "Hg10 mi
9:53 PM13 °FLow clouds.10 mph84%30.69 "Hg10 mi
8:53 PM12 °FLow clouds.10 mph88%30.69 "Hg10 mi
7:53 PM11 °FLow clouds.10 mph88%30.69 "Hg10 mi
6:53 PM11 °FOvercast.8 mph88%30.69 "Hg10 mi
5:53 PM11 °FOvercast.8 mph84%30.68 "Hg10 mi
4:53 PM10 °FOvercast.8 mph84%30.68 "Hg10 mi
3:53 PM10 °FOvercast.8 mph84%30.68 "Hg10 mi
2:53 PM10 °FOvercast.8 mph80%30.69 "Hg10 mi
1:53 PM9 °FLight snow. Overcast.10 mph84%30.70 "Hg6 mi
12:53 PM9 °FOvercast.8 mph80%30.69 "Hg9 mi
11:53 AM8 °FOvercast.7 mph79%30.68 "Hg10 mi
10:53 AM7 °FOvercast.12 mph83%30.68 "Hg10 mi
9:53 AM7 °FOvercast.9 mph83%30.68 "Hg10 mi
8:53 AM6 °FMostly cloudy.8 mph87%30.68 "Hg10 mi
Weather by CustomWeather, © 2014

See weather overviewHow to use our weather pages